Time,TemperatureF,DewpointF,PressureIn,WindDirection,WindDirectionDegrees,WindSpeedMPH,WindSpeedGustMPH,Humidity,HourlyPrecipIn,Conditions,Clouds,dailyrainin,SolarRadiationWatts/m^2,SoftwareType,DateUTC
2013-06-25 00:01:00,68.3,68.3,29.69,SSE,160,1.0,0.0,100,0.00,,CLR,0.00,0.00,VWS V14.01,2013-06-25 05:01:00,
2013-06-25 00:06:00,68.1,68.1,29.70,SE,142,1.0,0.0,100,0.00,,CLR,0.00,0.00,VWS V14.01,2013-06-25 05:06:00,
2013-06-25 00:11:00,67.9,67.9,29.70,SE,144,1.0,0.0,100,0.00,,CLR,0.00,0.00,VWS V14.01,2013-06-25 05:11:00,
2013-06-25 00:16:00,67.6,67.6,29.70,SE,144,2.0,2.0,100,0.00,,CLR,0.00,0.00,VWS V14.01,2013-06-25 05:16:00,
2013-06-25 00:21:00,67.4,67.4,29.70,SSE,156,7.0,7.0,100,0.00,,CLR,0.00,0.00,VWS V14.01,2013-06-25 05:21:00,
2013-06-25 00:27:00,67.5,67.5,29.70,SSE,157,5.0,6.0,100,0.00,,CLR,0.00,0.00,VWS V14.01,2013-06-25 05:27:00,
2013-06-25 00:32:00,67.6,67.6,29.70,SSE,157,8.0,8.0,100,0.00,,CLR,0.00,0.00,VWS V14.01,2013-06-25 05:32:00,
2013-06-25 00:37:00,67.6,67.6,29.70,SE,145,4.0,4.0,100,0.00,,CLR,0.00,0.00,VWS V14.01,2013-06-25 05:37:00,
2013-06-25 00:42:00,67.6,67.6,29.70,SSE,153,7.0,7.0,100,0.00,,CLR,0.00,0.00,VWS V14.01,2013-06-25 05:42:00,
2013-06-25 00:47:00,67.6,67.6,29.69,SE,144,2.0,2.0,100,0.00,,CLR,0.00,0.00,VWS V14.01,2013-06-25 05:47:00,
2013-06-25 00:52:00,67.3,67.3,29.69,SW,221,1.0,0.0,100,0.00,,CLR,0.00,0.00,VWS V14.01,2013-06-25 05:52:00,
2013-06-25 00:57:00,67.0,67.0,29.69,SE,126,1.0,0.0,100,0.00,,CLR,0.00,0.00,VWS V14.01,2013-06-25 05:57:00,
2013-06-25 01:02:00,66.8,66.8,29.69,SE,127,1.0,0.0,100,0.00,,CLR,0.00,0.00,VWS V14.01,2013-06-25 06:02:00,
2013-06-25 01:07:00,66.6,66.6,29.69,SE,136,1.0,0.0,100,0.00,,CLR,0.00,0.00,VWS V14.01,2013-06-25 06:07:00,
2013-06-25 01:12:00,66.3,66.3,29.69,SSE,164,1.0,1.0,100,0.00,,CLR,0.00,0.00,VWS V14.01,2013-06-25 06:12:00,
2013-06-25 01:17:00,66.1,66.1,29.69,SSE,161,2.0,2.0,100,0.00,,CLR,0.00,0.00,VWS V14.01,2013-06-25 06:17:00,
2013-06-25 01:22:00,66.0,66.0,29.69,SSE,150,1.0,0.0,100,0.00,,CLR,0.00,0.00,VWS V14.01,2013-06-25 06:22:00,
2013-06-25 01:27:00,65.8,65.8,29.69,SSE,150,1.0,0.0,100,0.00,,CLR,0.00,0.00,VWS V14.01,2013-06-25 06:27:00,
2013-06-25 01:32:00,65.7,65.7,29.69,SSE,158,4.0,4.0,100,0.00,,CLR,0.00,0.00,VWS V14.01,2013-06-25 06:32:00,
2013-06-25 01:37:00,65.8,65.8,29.69,SSE,159,6.0,6.0,100,0.00,,CLR,0.00,0.00,VWS V14.01,2013-06-25 06:37:00,
2013-06-25 01:42:00,66.0,66.0,29.70,SSE,157,8.0,8.0,100,0.00,,CLR,0.00,0.00,VWS V14.01,2013-06-25 06:42:00,
2013-06-25 01:47:00,66.1,66.1,29.70,SSE,166,6.0,7.0,100,0.00,,CLR,0.00,0.00,VWS V14.01,2013-06-25 06:47:00,
2013-06-25 01:52:00,66.3,66.3,29.70,SSE,164,6.0,6.0,100,0.00,,CLR,0.00,0.00,VWS V14.01,2013-06-25 06:52:00,
2013-06-25 01:57:00,66.2,66.2,29.70,South,178,6.0,6.0,100,0.00,,CLR,0.00,0.00,VWS V14.01,2013-06-25 06:57:00,
2013-06-25 02:02:00,66.1,66.1,29.70,South,173,5.0,5.0,100,0.00,,CLR,0.00,0.00,VWS V14.01,2013-06-25 07:02:00,
2013-06-25 02:07:00,66.0,66.0,29.70,SSE,160,5.0,5.0,100,0.00,,CLR,0.00,0.00,VWS V14.01,2013-06-25 07:07:00,
2013-06-25 02:12:00,65.9,65.9,29.70,SSE,166,5.0,5.0,100,0.00,,CLR,0.00,0.00,VWS V14.01,2013-06-25 07:12:00,
2013-06-25 02:17:00,66.0,66.0,29.70,SSE,161,6.0,6.0,100,0.00,,CLR,0.00,0.00,VWS V14.01,2013-06-25 07:17:00,
2013-06-25 02:22:00,66.1,66.1,29.70,SSE,161,5.0,5.0,100,0.00,,CLR,0.00,0.00,VWS V14.01,2013-06-25 07:22:00,
2013-06-25 02:27:00,66.1,66.1,29.70,South,169,3.0,4.0,100,0.00,,CLR,0.00,0.00,VWS V14.01,2013-06-25 07:27:00,
2013-06-25 02:32:00,65.9,65.9,29.70,South,179,1.0,0.0,100,0.00,,CLR,0.00,0.00,VWS V14.01,2013-06-25 07:32:00,
2013-06-25 02:37:00,65.7,65.7,29.70,South,179,1.0,0.0,100,0.00,,CLR,0.00,0.00,VWS V14.01,2013-06-25 07:37:00,
2013-06-25 02:42:00,65.4,65.4,29.70,South,179,1.0,0.0,100,0.00,,CLR,0.00,0.00,VWS V14.01,2013-06-25 07:42:00,
2013-06-25 02:47:00,65.2,65.2,29.70,South,179,1.0,0.0,100,0.00,,CLR,0.00,0.00,VWS V14.01,2013-06-25 07:47:00,
2013-06-25 02:52:00,64.8,64.8,29.70,South,180,1.0,0.0,100,0.00,,CLR,0.00,0.00,VWS V14.01,2013-06-25 07:52:00,
2013-06-25 02:57:00,64.6,64.6,29.70,South,179,1.0,0.0,100,0.00,,CLR,0.00,0.00,VWS V14.01,2013-06-25 07:57:00,
2013-06-25 03:02:00,64.4,64.4,29.70,South,180,1.0,0.0,100,0.00,,CLR,0.00,0.00,VWS V14.01,2013-06-25 08:02:00,
2013-06-25 03:07:00,64.2,64.2,29.70,South,180,1.0,0.0,100,0.00,,CLR,0.00,0.00,VWS V14.01,2013-06-25 08:07:00,
2013-06-25 03:12:00,64.1,64.1,29.71,South,179,1.0,0.0,100,0.00,,CLR,0.00,0.00,VWS V14.01,2013-06-25 08:12:00,
2013-06-25 03:17:00,64.0,64.0,29.71,South,179,1.0,0.0,100,0.00,,CLR,0.00,0.00,VWS V14.01,2013-06-25 08:17:00,
2013-06-25 03:22:00,64.0,64.0,29.71,South,180,1.0,0.0,100,0.00,,CLR,0.00,0.00,VWS V14.01,2013-06-25 08:22:00,
2013-06-25 03:27:00,63.6,63.6,29.71,South,180,1.0,0.0,100,0.00,,CLR,0.00,0.00,VWS V14.01,2013-06-25 08:27:00,
2013-06-25 03:32:00,63.4,63.4,29.71,South,180,1.0,0.0,100,0.00,,CLR,0.00,0.00,VWS V14.01,2013-06-25 08:32:00,
2013-06-25 03:37:00,63.3,63.3,29.71,South,179,1.0,0.0,100,0.00,,CLR,0.00,0.00,VWS V14.01,2013-06-25 08:37:00,
2013-06-25 03:42:00,63.3,63.3,29.71,South,180,1.0,0.0,100,0.00,,CLR,0.00,0.00,VWS V14.01,2013-06-25 08:42:00,
2013-06-25 03:47:00,63.4,63.4,29.71,South,179,1.0,0.0,100,0.00,,CLR,0.00,0.00,VWS V14.01,2013-06-25 08:47:00,
2013-06-25 03:52:00,63.5,63.5,29.71,South,179,1.0,0.0,100,0.00,,CLR,0.00,0.00,VWS V14.01,2013-06-25 08:52:00,
2013-06-25 03:57:00,63.1,63.1,29.71,South,180,1.0,0.0,100,0.00,,CLR,0.00,0.00,VWS V14.01,2013-06-25 08:57:00,
2013-06-25 04:02:00,62.7,62.7,29.71,South,180,1.0,0.0,100,0.00,,CLR,0.00,0.00,VWS V14.01,2013-06-25 09:02:00,
2013-06-25 04:07:00,62.6,62.6,29.71,South,179,1.0,0.0,100,0.00,,CLR,0.00,0.00,VWS V14.01,2013-06-25 09:07:00,
2013-06-25 04:12:00,62.6,62.6,29.71,South,179,1.0,0.0,100,0.00,,CLR,0.00,0.00,VWS V14.01,2013-06-25 09:12:00,
2013-06-25 04:17:00,62.5,62.5,29.71,South,180,1.0,0.0,100,0.00,,CLR,0.00,0.00,VWS V14.01,2013-06-25 09:17:00,
2013-06-25 04:22:00,62.5,62.5,29.70,South,180,1.0,0.0,100,0.00,,CLR,0.00,0.00,VWS V14.01,2013-06-25 09:22:00,
2013-06-25 04:27:00,62.7,62.7,29.70,South,176,1.0,0.0,100,0.00,,CLR,0.00,0.00,VWS V14.01,2013-06-25 09:27:00,
2013-06-25 04:32:00,63.1,63.1,29.70,South,175,1.0,0.0,100,0.00,,CLR,0.00,0.00,VWS V14.01,2013-06-25 09:32:00,
2013-06-25 04:37:00,63.3,63.3,29.70,SE,126,1.0,1.0,100,0.00,,CLR,0.00,0.00,VWS V14.01,2013-06-25 09:37:00,
2013-06-25 04:42:00,63.6,63.6,29.70,East,86,1.0,0.0,100,0.00,,CLR,0.00,0.00,VWS V14.01,2013-06-25 09:42:00,
2013-06-25 04:47:00,63.6,63.6,29.70,East,86,1.0,0.0,100,0.00,,CLR,0.00,0.00,VWS V14.01,2013-06-25 09:47:00,
2013-06-25 04:52:00,63.5,63.5,29.70,East,86,1.0,0.0,100,0.00,,CLR,0.00,0.00,VWS V14.01,2013-06-25 09:52:00,
2013-06-25 04:57:00,63.5,63.5,29.69,East,86,1.0,0.0,100,0.00,,CLR,0.00,0.00,VWS V14.01,2013-06-25 09:57:00,
2013-06-25 05:02:00,63.3,63.3,29.69,East,86,1.0,0.0,100,0.00,,CLR,0.00,0.00,VWS V14.01,2013-06-25 10:02:00,
2013-06-25 05:07:00,63.3,63.3,29.70,SE,128,1.0,0.0,100,0.00,,CLR,0.00,0.00,VWS V14.01,2013-06-25 10:07:00,
2013-06-25 05:12:00,63.2,63.2,29.69,SE,128,1.0,0.0,100,0.00,,CLR,0.00,0.00,VWS V14.01,2013-06-25 10:12:00,
2013-06-25 05:18:00,62.9,62.9,29.69,SE,128,1.0,0.0,100,0.00,,CLR,0.00,0.00,VWS V14.01,2013-06-25 10:18:00,
2013-06-25 05:23:00,62.9,62.9,29.70,SE,142,1.0,1.0,100,0.00,,CLR,0.00,0.00,VWS V14.01,2013-06-25 10:23:00,
2013-06-25 05:28:00,62.9,62.9,29.69,SE,142,1.0,0.0,100,0.00,,CLR,0.00,0.00,VWS V14.01,2013-06-25 10:28:00,
2013-06-25 05:33:00,62.9,62.9,29.69,SE,142,1.0,0.0,100,0.00,,CLR,0.00,0.00,VWS V14.01,2013-06-25 10:33:00,
2013-06-25 05:38:00,62.9,62.9,29.69,SE,142,1.0,0.0,100,0.00,,CLR,0.00,5.00,VWS V14.01,2013-06-25 10:38:00,
2013-06-25 05:43:00,62.9,62.9,29.69,SE,129,2.0,2.0,100,0.00,,CLR,0.00,9.00,VWS V14.01,2013-06-25 10:43:00,
2013-06-25 05:48:00,62.9,62.9,29.69,SE,129,2.0,2.0,100,0.00,,CLR,0.00,12.00,VWS V14.01,2013-06-25 10:48:00,
2013-06-25 05:53:00,63.0,63.0,29.69,South,172,1.0,0.0,100,0.00,,CLR,0.00,16.00,VWS V14.01,2013-06-25 10:53:00,
2013-06-25 05:58:00,63.1,63.1,29.69,SE,130,1.0,0.0,100,0.00,,CLR,0.00,21.00,VWS V14.01,2013-06-25 10:58:00,
2013-06-25 06:03:00,63.1,63.1,29.69,SE,130,1.0,0.0,100,0.00,,CLR,0.00,26.00,VWS V14.01,2013-06-25 11:03:00,
2013-06-25 06:08:00,63.1,63.1,29.69,SE,130,1.0,0.0,100,0.00,,CLR,0.00,33.00,VWS V14.01,2013-06-25 11:08:00,
2013-06-25 06:12:00,63.1,63.1,29.68,ESE,115,1.0,0.0,100,0.00,,CLR,0.00,40.00,VWS V14.01,2013-06-25 11:12:00,
2013-06-25 06:17:00,63.3,63.3,29.68,SE,141,1.0,0.0,100,0.00,,CLR,0.00,49.00,VWS V14.01,2013-06-25 11:17:00,
2013-06-25 06:22:00,63.5,63.5,29.68,SSW,192,1.0,0.0,100,0.00,,CLR,0.00,53.00,VWS V14.01,2013-06-25 11:22:00,
2013-06-25 06:27:00,63.6,63.6,29.68,East,101,4.0,4.0,100,0.00,,CLR,0.00,58.00,VWS V14.01,2013-06-25 11:27:00,
2013-06-25 06:32:00,63.7,63.7,29.68,ESE,102,1.0,0.0,100,0.00,,CLR,0.00,63.00,VWS V14.01,2013-06-25 11:32:00,
2013-06-25 06:38:00,63.8,63.8,29.69,ESE,109,1.0,1.0,100,0.00,,CLR,0.00,72.00,VWS V14.01,2013-06-25 11:38:00,
2013-06-25 06:43:00,64.0,64.0,29.69,ESE,115,2.0,2.0,100,0.00,,CLR,0.00,88.00,VWS V14.01,2013-06-25 11:43:00,
2013-06-25 06:48:00,64.1,64.1,29.69,ESE,115,1.0,0.0,100,0.00,,CLR,0.00,95.00,VWS V14.01,2013-06-25 11:48:00,
2013-06-25 06:53:00,64.3,64.3,29.69,SE,133,1.0,0.0,100,0.00,,CLR,0.00,95.00,VWS V14.01,2013-06-25 11:53:00,
2013-06-25 06:58:00,64.5,64.5,29.69,SE,133,1.0,0.0,100,0.00,,CLR,0.00,104.00,VWS V14.01,2013-06-25 11:58:00,
2013-06-25 07:03:00,64.6,64.6,29.69,SE,132,1.0,0.0,100,0.00,,CLR,0.00,114.00,VWS V14.01,2013-06-25 12:03:00,
2013-06-25 07:08:00,64.9,64.9,29.68,ESE,118,1.0,0.0,100,0.00,,CLR,0.00,151.00,VWS V14.01,2013-06-25 12:08:00,
2013-06-25 07:13:00,65.2,65.2,29.68,SSE,148,2.0,2.0,100,0.00,,CLR,0.00,181.00,VWS V14.01,2013-06-25 12:13:00,
2013-06-25 07:18:00,65.5,65.5,29.68,SSE,153,3.0,4.0,100,0.00,,CLR,0.00,220.00,VWS V14.01,2013-06-25 12:18:00,
2013-06-25 07:23:00,65.9,65.9,29.69,SE,128,2.0,2.0,100,0.00,,CLR,0.00,171.00,VWS V14.01,2013-06-25 12:23:00,
2013-06-25 07:28:00,66.0,66.0,29.69,SSE,157,3.0,5.0,100,0.00,,CLR,0.00,174.00,VWS V14.01,2013-06-25 12:28:00,
2013-06-25 07:33:00,66.1,66.1,29.69,ESE,111,3.0,4.0,100,0.00,,CLR,0.00,179.00,VWS V14.01,2013-06-25 12:33:00,
2013-06-25 07:38:00,66.3,66.3,29.68,South,173,2.0,2.0,100,0.00,,CLR,0.00,142.00,VWS V14.01,2013-06-25 12:38:00,
2013-06-25 07:43:00,66.3,66.3,29.69,SSE,167,3.0,3.0,100,0.00,,CLR,0.00,116.00,VWS V14.01,2013-06-25 12:43:00,
2013-06-25 07:48:00,66.3,66.3,29.69,SE,144,2.0,2.0,100,0.00,,CLR,0.00,109.00,VWS V14.01,2013-06-25 12:48:00,
2013-06-25 07:53:00,66.3,66.3,29.69,SSE,163,1.0,1.0,100,0.00,,CLR,0.00,178.00,VWS V14.01,2013-06-25 12:53:00,
2013-06-25 07:58:00,66.7,66.7,29.69,SSE,154,4.0,4.0,100,0.00,,CLR,0.00,292.00,VWS V14.01,2013-06-25 12:58:00,
2013-06-25 08:03:00,67.4,67.4,29.69,SSE,159,3.0,3.0,100,0.00,,CLR,0.00,378.00,VWS V14.01,2013-06-25 13:03:00,
2013-06-25 08:08:00,68.1,68.1,29.69,SSE,153,6.0,6.0,100,0.00,,CLR,0.00,346.00,VWS V14.01,2013-06-25 13:08:00,
2013-06-25 08:13:00,68.5,68.5,29.69,SSE,158,6.0,6.0,100,0.00,,CLR,0.00,406.00,VWS V14.01,2013-06-25 13:13:00,
2013-06-25 08:18:00,69.0,69.0,29.68,SSE,153,2.0,2.0,100,0.00,,CLR,0.00,387.00,VWS V14.01,2013-06-25 13:18:00,
2013-06-25 08:23:00,69.6,69.6,29.68,SE,145,5.0,6.0,100,0.00,,CLR,0.00,450.00,VWS V14.01,2013-06-25 13:23:00,
2013-06-25 08:28:00,69.9,69.9,29.68,SE,145,4.0,4.0,100,0.00,,CLR,0.00,457.00,VWS V14.01,2013-06-25 13:28:00,
2013-06-25 08:33:00,70.1,70.1,29.68,SSE,148,5.0,5.0,100,0.00,,CLR,0.00,431.00,VWS V14.01,2013-06-25 13:33:00,
2013-06-25 08:38:00,70.3,70.3,29.68,SSE,155,7.0,7.0,100,0.00,,CLR,0.00,492.00,VWS V14.01,2013-06-25 13:38:00,
2013-06-25 08:43:00,70.7,70.7,29.68,SSE,160,7.0,7.0,100,0.00,,CLR,0.00,478.00,VWS V14.01,2013-06-25 13:43:00,
2013-06-25 08:48:00,70.9,70.9,29.68,SSE,148,7.0,7.0,100,0.00,,CLR,0.00,566.00,VWS V14.01,2013-06-25 13:48:00,
2013-06-25 08:53:00,71.2,71.2,29.67,SSE,147,4.0,4.0,100,0.00,,CLR,0.00,485.00,VWS V14.01,2013-06-25 13:53:00,
2013-06-25 08:58:00,71.4,71.4,29.67,SSE,159,8.0,8.0,100,0.00,,CLR,0.00,489.00,VWS V14.01,2013-06-25 13:58:00,
2013-06-25 09:03:00,71.6,71.6,29.67,SSE,151,6.0,9.0,100,0.00,,CLR,0.00,462.00,VWS V14.01,2013-06-25 14:03:00,
2013-06-25 09:08:00,71.4,71.4,29.67,SSE,156,9.0,9.0,100,0.00,,CLR,0.00,446.00,VWS V14.01,2013-06-25 14:08:00,
2013-06-25 09:13:00,71.6,71.6,29.68,SSE,155,4.0,4.0,100,0.00,,CLR,0.00,376.00,VWS V14.01,2013-06-25 14:13:00,
2013-06-25 09:18:00,71.7,71.7,29.67,SSE,161,5.0,5.0,100,0.00,,CLR,0.00,381.00,VWS V14.01,2013-06-25 14:18:00,
2013-06-25 09:23:00,71.9,71.9,29.68,SSE,161,7.0,9.0,100,0.00,,CLR,0.00,454.00,VWS V14.01,2013-06-25 14:23:00,
2013-06-25 09:28:00,72.4,72.4,29.68,SSE,165,11.0,11.0,100,0.00,,CLR,0.00,557.00,VWS V14.01,2013-06-25 14:28:00,
2013-06-25 09:33:00,73.0,73.0,29.68,SSE,168,7.0,7.0,100,0.00,,CLR,0.00,582.00,VWS V14.01,2013-06-25 14:33:00,
2013-06-25 09:38:00,73.6,73.6,29.68,SSE,158,8.0,8.0,100,0.00,,CLR,0.00,564.00,VWS V14.01,2013-06-25 14:38:00,
2013-06-25 09:43:00,73.9,73.9,29.68,SSE,161,4.0,5.0,100,0.00,,CLR,0.00,573.00,VWS V14.01,2013-06-25 14:43:00,
2013-06-25 09:48:00,74.5,74.5,29.68,SSE,163,7.0,7.0,100,0.00,,CLR,0.00,490.00,VWS V14.01,2013-06-25 14:48:00,
2013-06-25 09:53:00,74.6,74.6,29.68,SSE,148,7.0,7.0,100,0.00,,CLR,0.00,552.00,VWS V14.01,2013-06-25 14:53:00,
2013-06-25 09:58:00,74.5,74.5,29.67,SSE,167,8.0,8.0,100,0.00,,CLR,0.00,547.00,VWS V14.01,2013-06-25 14:58:00,
2013-06-25 10:04:00,74.8,74.8,29.67,SSE,162,8.0,8.0,100,0.00,,CLR,0.00,577.00,VWS V14.01,2013-06-25 15:04:00,
2013-06-25 10:09:00,75.0,75.0,29.68,SSE,163,11.0,11.0,100,0.00,,CLR,0.00,649.00,VWS V14.01,2013-06-25 15:09:00,
2013-06-25 10:14:00,75.5,75.5,29.67,South,176,10.0,10.0,100,0.00,,CLR,0.00,675.00,VWS V14.01,2013-06-25 15:14:00,
2013-06-25 10:19:00,75.9,75.9,29.67,SSE,163,6.0,7.0,100,0.00,,CLR,0.00,615.00,VWS V14.01,2013-06-25 15:19:00,
2013-06-25 10:24:00,75.9,75.9,29.67,SSE,154,11.0,11.0,100,0.00,,CLR,0.00,533.00,VWS V14.01,2013-06-25 15:24:00,
2013-06-25 10:29:00,76.0,76.0,29.67,South,178,10.0,12.0,100,0.00,,CLR,0.00,570.00,VWS V14.01,2013-06-25 15:29:00,
2013-06-25 10:34:00,76.2,76.2,29.67,SSE,164,8.0,8.0,100,0.00,,CLR,0.00,647.00,VWS V14.01,2013-06-25 15:34:00,
2013-06-25 10:39:00,76.7,76.7,29.66,SSE,148,11.0,11.0,100,0.00,,CLR,0.00,782.00,VWS V14.01,2013-06-25 15:39:00,
2013-06-25 10:44:00,76.9,76.9,29.67,SSE,155,12.0,12.0,100,0.00,,CLR,0.00,731.00,VWS V14.01,2013-06-25 15:44:00,
2013-06-25 10:49:00,77.2,77.2,29.67,SE,143,15.0,15.0,100,0.00,,CLR,0.00,860.00,VWS V14.01,2013-06-25 15:49:00,
2013-06-25 10:54:00,77.5,77.5,29.67,SSE,166,7.0,7.0,100,0.00,,CLR,0.00,865.00,VWS V14.01,2013-06-25 15:54:00,
2013-06-25 10:59:00,77.6,77.6,29.67,SSE,149,13.0,13.0,100,0.00,,CLR,0.00,844.00,VWS V14.01,2013-06-25 15:59:00,
2013-06-25 11:04:00,77.6,77.6,29.67,SSW,192,10.0,10.0,100,0.00,,CLR,0.00,842.00,VWS V14.01,2013-06-25 16:04:00,
2013-06-25 11:09:00,78.1,78.1,29.67,South,176,16.0,16.0,100,0.00,,CLR,0.00,860.00,VWS V14.01,2013-06-25 16:09:00,
2013-06-25 11:14:00,78.1,78.1,29.67,SSE,150,12.0,12.0,100,0.00,,CLR,0.00,882.00,VWS V14.01,2013-06-25 16:14:00,
2013-06-25 11:19:00,77.8,77.8,29.67,South,171,10.0,11.0,100,0.00,,CLR,0.00,872.00,VWS V14.01,2013-06-25 16:19:00,
2013-06-25 11:24:00,78.0,78.0,29.67,SSE,161,15.0,17.0,100,0.00,,CLR,0.00,879.00,VWS V14.01,2013-06-25 16:24:00,
2013-06-25 11:29:00,78.1,78.1,29.67,SSE,157,16.0,16.0,100,0.00,,CLR,0.00,693.00,VWS V14.01,2013-06-25 16:29:00,
2013-06-25 11:34:00,77.7,77.7,29.67,SSE,155,8.0,8.0,100,0.00,,CLR,0.00,886.00,VWS V14.01,2013-06-25 16:34:00,
2013-06-25 11:39:00,78.2,78.2,29.67,South,184,16.0,16.0,100,0.00,,CLR,0.00,896.00,VWS V14.01,2013-06-25 16:39:00,
2013-06-25 11:44:00,78.6,78.6,29.67,SSE,159,13.0,14.0,100,0.00,,CLR,0.00,882.00,VWS V14.01,2013-06-25 16:44:00,
2013-06-25 11:49:00,78.3,78.3,29.66,SSE,153,10.0,11.0,100,0.00,,CLR,0.00,895.00,VWS V14.01,2013-06-25 16:49:00,
2013-06-25 11:54:00,78.6,78.6,29.66,South,175,12.0,13.0,100,0.00,,CLR,0.00,893.00,VWS V14.01,2013-06-25 16:54:00,
2013-06-25 11:59:00,78.7,78.7,29.66,South,169,12.0,15.0,100,0.00,,CLR,0.00,898.00,VWS V14.01,2013-06-25 16:59:00,
2013-06-25 12:04:00,79.1,79.1,29.66,SSE,156,12.0,12.0,100,0.00,,FEW026,0.00,930.00,VWS V14.01,2013-06-25 17:04:00,
2013-06-25 12:09:00,79.5,79.5,29.66,South,178,8.0,11.0,100,0.00,,FEW026,0.00,916.00,VWS V14.01,2013-06-25 17:09:00,
2013-06-25 12:14:00,79.7,79.7,29.67,SSE,168,7.0,9.0,100,0.00,,FEW026,0.00,928.00,VWS V14.01,2013-06-25 17:14:00,
2013-06-25 12:19:00,79.8,79.8,29.66,South,175,10.0,11.0,100,0.00,,FEW026,0.00,940.00,VWS V14.01,2013-06-25 17:19:00,
2013-06-25 12:24:00,80.2,80.2,29.66,South,182,8.0,8.0,100,0.00,,FEW026,0.00,919.00,VWS V14.01,2013-06-25 17:24:00,
2013-06-25 12:29:00,80.7,80.7,29.66,South,179,8.0,11.0,100,0.00,,FEW026,0.00,940.00,VWS V14.01,2013-06-25 17:29:00,
2013-06-25 12:34:00,80.6,80.6,29.67,SE,146,11.0,11.0,100,0.00,,FEW026,0.00,940.00,VWS V14.01,2013-06-25 17:34:00,
2013-06-25 12:39:00,80.6,80.6,29.66,SSE,159,12.0,13.0,100,0.00,,FEW026,0.00,932.00,VWS V14.01,2013-06-25 17:39:00,
2013-06-25 12:44:00,80.5,80.5,29.66,SE,140,8.0,9.0,100,0.00,,FEW026,0.00,944.00,VWS V14.01,2013-06-25 17:44:00,
2013-06-25 12:49:00,80.5,80.5,29.66,SE,138,7.0,9.0,100,0.00,,FEW026,0.00,944.00,VWS V14.01,2013-06-25 17:49:00,
2013-06-25 12:54:00,80.7,80.7,29.66,SSE,155,7.0,9.0,100,0.00,,FEW026,0.00,947.00,VWS V14.01,2013-06-25 17:54:00,
2013-06-25 12:59:00,81.1,81.1,29.66,South,176,12.0,12.0,100,0.00,,FEW026,0.00,949.00,VWS V14.01,2013-06-25 17:59:00,
2013-06-25 13:04:00,81.1,81.1,29.67,SE,146,6.0,6.0,100,0.00,,CLR,0.00,953.00,VWS V14.01,2013-06-25 18:04:00,
2013-06-25 13:09:00,80.9,80.9,29.66,South,182,7.0,7.0,100,0.00,,CLR,0.00,951.00,VWS V14.01,2013-06-25 18:09:00,
2013-06-25 13:14:00,81.1,81.1,29.66,SE,140,10.0,10.0,100,0.00,,CLR,0.00,947.00,VWS V14.01,2013-06-25 18:14:00,
2013-06-25 13:19:00,81.3,81.3,29.66,SSE,156,12.0,12.0,100,0.00,,CLR,0.00,949.00,VWS V14.01,2013-06-25 18:19:00,
2013-06-25 13:24:00,81.5,81.5,29.66,SSE,157,8.0,8.0,100,0.00,,CLR,0.00,951.00,VWS V14.01,2013-06-25 18:24:00,
2013-06-25 13:29:00,81.8,81.8,29.66,SSE,161,8.0,10.0,100,0.00,,CLR,0.00,958.00,VWS V14.01,2013-06-25 18:29:00,
2013-06-25 13:34:00,81.7,81.7,29.65,SSE,167,6.0,6.0,100,0.00,,CLR,0.00,954.00,VWS V14.01,2013-06-25 18:34:00,
2013-06-25 13:39:00,82.1,82.1,29.65,SSE,168,6.0,6.0,100,0.00,,CLR,0.00,940.00,VWS V14.01,2013-06-25 18:39:00,
2013-06-25 13:44:00,82.2,82.2,29.66,SSE,160,8.0,8.0,100,0.00,,CLR,0.00,944.00,VWS V14.01,2013-06-25 18:44:00,
2013-06-25 13:49:00,82.0,82.0,29.65,SSE,165,8.0,8.0,100,0.00,,CLR,0.00,944.00,VWS V14.01,2013-06-25 18:49:00,
2013-06-25 13:54:00,82.6,82.6,29.66,South,171,11.0,11.0,100,0.00,,CLR,0.00,954.00,VWS V14.01,2013-06-25 18:54:00,
2013-06-25 14:00:00,82.6,82.6,29.65,South,182,5.0,5.0,100,0.00,,CLR,0.00,986.00,VWS V14.01,2013-06-25 19:00:00,
2013-06-25 14:05:00,82.3,82.3,29.66,SSE,168,5.0,5.0,100,0.00,,CLR,0.00,925.00,VWS V14.01,2013-06-25 19:05:00,
2013-06-25 14:10:00,82.4,82.4,29.66,South,176,10.0,10.0,100,0.00,,CLR,0.00,946.00,VWS V14.01,2013-06-25 19:10:00,
2013-06-25 14:15:00,82.4,82.4,29.66,SSE,159,3.0,6.0,100,0.00,,CLR,0.00,930.00,VWS V14.01,2013-06-25 19:15:00,
2013-06-25 14:20:00,82.6,82.6,29.66,SE,141,10.0,10.0,100,0.00,,CLR,0.00,940.00,VWS V14.01,2013-06-25 19:20:00,
2013-06-25 14:25:00,82.5,82.5,29.65,SE,140,6.0,9.0,100,0.00,,CLR,0.00,926.00,VWS V14.01,2013-06-25 19:25:00,
2013-06-25 14:30:00,82.6,82.6,29.65,SSE,161,6.0,6.0,100,0.00,,CLR,0.00,958.00,VWS V14.01,2013-06-25 19:30:00,
2013-06-25 14:35:00,82.7,82.7,29.64,SSE,149,3.0,6.0,100,0.00,,CLR,0.00,893.00,VWS V14.01,2013-06-25 19:35:00,
2013-06-25 14:40:00,82.8,82.8,29.64,SE,140,8.0,9.0,100,0.00,,CLR,0.00,895.00,VWS V14.01,2013-06-25 19:40:00,
2013-06-25 14:45:00,82.8,82.8,29.64,South,173,8.0,10.0,100,0.00,,CLR,0.00,886.00,VWS V14.01,2013-06-25 19:45:00,
2013-06-25 14:50:00,82.9,82.9,29.64,SSE,163,7.0,10.0,100,0.00,,CLR,0.00,881.00,VWS V14.01,2013-06-25 19:50:00,
2013-06-25 14:55:00,83.2,83.2,29.64,South,171,9.0,9.0,100,0.00,,CLR,0.00,875.00,VWS V14.01,2013-06-25 19:55:00,
2013-06-25 15:00:00,83.2,83.2,29.64,ESE,113,6.0,6.0,100,0.00,,CLR,0.00,867.00,VWS V14.01,2013-06-25 20:00:00,
2013-06-25 15:05:00,83.5,83.5,29.64,SSE,165,7.0,7.0,100,0.00,,CLR,0.00,868.00,VWS V14.01,2013-06-25 20:05:00,
2013-06-25 15:10:00,83.6,83.6,29.64,SSE,160,8.0,8.0,100,0.00,,CLR,0.00,854.00,VWS V14.01,2013-06-25 20:10:00,
2013-06-25 15:15:00,83.7,83.7,29.64,SSE,153,5.0,6.0,100,0.00,,CLR,0.00,851.00,VWS V14.01,2013-06-25 20:15:00,
2013-06-25 15:20:00,83.9,83.9,29.64,SE,145,7.0,8.0,100,0.00,,CLR,0.00,840.00,VWS V14.01,2013-06-25 20:20:00,
2013-06-25 15:25:00,83.9,83.9,29.64,SE,133,4.0,6.0,100,0.00,,CLR,0.00,828.00,VWS V14.01,2013-06-25 20:25:00,
2013-06-25 15:30:00,83.7,83.7,29.64,East,86,4.0,6.0,100,0.00,,CLR,0.00,826.00,VWS V14.01,2013-06-25 20:30:00,
2013-06-25 15:35:00,83.9,83.9,29.64,SSE,160,8.0,8.0,100,0.00,,CLR,0.00,816.00,VWS V14.01,2013-06-25 20:35:00,
2013-06-25 15:40:00,84.0,84.0,29.64,South,173,6.0,6.0,100,0.00,,CLR,0.00,812.00,VWS V14.01,2013-06-25 20:40:00,
2013-06-25 15:45:00,84.2,84.2,29.63,ENE,77,6.0,6.0,100,0.00,,CLR,0.00,796.00,VWS V14.01,2013-06-25 20:45:00,
2013-06-25 15:50:00,84.5,84.5,29.64,SSE,160,7.0,7.0,100,0.00,,CLR,0.00,789.00,VWS V14.01,2013-06-25 20:50:00,
2013-06-25 15:55:00,84.7,84.7,29.63,ESE,121,3.0,3.0,100,0.00,,CLR,0.00,777.00,VWS V14.01,2013-06-25 20:55:00,
2013-06-25 16:00:00,85.0,85.0,29.63,South,178,4.0,5.0,100,0.00,,CLR,0.00,765.00,VWS V14.01,2013-06-25 21:00:00,
2013-06-25 16:05:00,84.7,84.7,29.63,SSE,160,6.0,6.0,100,0.00,,CLR,0.00,754.00,VWS V14.01,2013-06-25 21:05:00,
2013-06-25 16:10:00,84.8,84.8,29.63,ESE,118,6.0,10.0,100,0.00,,CLR,0.00,740.00,VWS V14.01,2013-06-25 21:10:00,
2013-06-25 16:15:00,85.0,85.0,29.63,SE,125,3.0,4.0,100,0.00,,CLR,0.00,735.00,VWS V14.01,2013-06-25 21:15:00,
2013-06-25 16:20:00,85.0,85.0,29.63,South,172,2.0,2.0,100,0.00,,CLR,0.00,721.00,VWS V14.01,2013-06-25 21:20:00,
2013-06-25 16:25:00,85.2,85.2,29.63,ESE,119,2.0,3.0,100,0.00,,CLR,0.00,712.00,VWS V14.01,2013-06-25 21:25:00,
2013-06-25 16:30:00,85.1,85.1,29.63,SSE,167,5.0,5.0,100,0.00,,CLR,0.00,696.00,VWS V14.01,2013-06-25 21:30:00,
2013-06-25 16:35:00,85.0,85.0,29.63,NE,44,3.0,4.0,100,0.00,,CLR,0.00,686.00,VWS V14.01,2013-06-25 21:35:00,
2013-06-25 16:40:00,84.9,84.9,29.62,ESE,113,3.0,4.0,100,0.00,,CLR,0.00,670.00,VWS V14.01,2013-06-25 21:40:00,
2013-06-25 16:45:00,85.0,85.0,29.62,ESE,123,5.0,6.0,100,0.00,,CLR,0.00,657.00,VWS V14.01,2013-06-25 21:45:00,
2013-06-25 16:50:00,85.1,85.1,29.62,ESE,119,1.0,0.0,100,0.00,,CLR,0.00,640.00,VWS V14.01,2013-06-25 21:50:00,
2013-06-25 16:55:00,85.3,85.3,29.63,East,96,6.0,6.0,100,0.00,,CLR,0.00,631.00,VWS V14.01,2013-06-25 21:55:00,
2013-06-25 17:00:00,85.1,85.1,29.63,SSE,168,5.0,6.0,100,0.00,,CLR,0.00,622.00,VWS V14.01,2013-06-25 22:00:00,
2013-06-25 17:05:00,85.0,85.0,29.63,SSE,159,4.0,4.0,100,0.00,,CLR,0.00,552.00,VWS V14.01,2013-06-25 22:05:00,
2013-06-25 17:10:00,84.7,84.7,29.63,SSE,148,7.0,7.0,100,0.00,,CLR,0.00,645.00,VWS V14.01,2013-06-25 22:10:00,
2013-06-25 17:11:00,84.6,84.6,29.63,South,172,4.0,4.0,100,0.00,,CLR,0.00,645.00,VWS V14.01,2013-06-25 22:11:00,
2013-06-25 17:16:00,83.9,83.9,29.63,SSE,148,2.0,5.0,100,0.00,,CLR,0.00,181.00,VWS V14.01,2013-06-25 22:16:00,
2013-06-25 17:21:00,83.8,83.8,29.63,South,175,4.0,4.0,100,0.00,,CLR,0.00,631.00,VWS V14.01,2013-06-25 22:21:00,
2013-06-25 17:26:00,83.8,83.8,29.63,ESE,116,1.0,0.0,100,0.00,,CLR,0.00,605.00,VWS V14.01,2013-06-25 22:26:00,
2013-06-25 17:31:00,83.8,83.8,29.63,South,184,3.0,6.0,100,0.00,,CLR,0.00,506.00,VWS V14.01,2013-06-25 22:31:00,
2013-06-25 17:37:00,83.9,83.9,29.63,SE,141,3.0,6.0,100,0.00,,CLR,0.00,264.00,VWS V14.01,2013-06-25 22:37:00,
2013-06-25 17:42:00,83.6,83.6,29.63,South,174,7.0,7.0,100,0.00,,CLR,0.00,306.00,VWS V14.01,2013-06-25 22:42:00,
2013-06-25 17:47:00,83.2,83.2,29.63,SSE,153,5.0,5.0,100,0.00,,CLR,0.00,548.00,VWS V14.01,2013-06-25 22:47:00,
2013-06-25 17:52:00,83.3,83.3,29.63,South,169,2.0,2.0,100,0.00,,CLR,0.00,529.00,VWS V14.01,2013-06-25 22:52:00,
2013-06-25 17:57:00,83.6,83.6,29.63,SE,136,2.0,2.0,100,0.00,,CLR,0.00,431.00,VWS V14.01,2013-06-25 22:57:00,
2013-06-25 18:02:00,83.9,83.9,29.62,SSE,165,2.0,2.0,100,0.00,,CLR,0.00,418.00,VWS V14.01,2013-06-25 23:02:00,
2013-06-25 18:07:00,84.3,84.3,29.62,SE,136,3.0,6.0,100,0.00,,FEW043,0.00,457.00,VWS V14.01,2013-06-25 23:07:00,
2013-06-25 18:12:00,84.3,84.3,29.62,SSE,148,3.0,3.0,100,0.00,,FEW043,0.00,388.00,VWS V14.01,2013-06-25 23:12:00,
2013-06-25 18:17:00,84.2,84.2,29.62,East,96,4.0,4.0,100,0.00,,FEW043,0.00,403.00,VWS V14.01,2013-06-25 23:17:00,
2013-06-25 18:22:00,84.0,84.0,29.62,SE,145,2.0,3.0,100,0.00,,FEW043,0.00,352.00,VWS V14.01,2013-06-25 23:22:00,
2013-06-25 18:27:00,84.1,84.1,29.62,SSE,150,1.0,1.0,100,0.00,,FEW043,0.00,378.00,VWS V14.01,2013-06-25 23:27:00,
2013-06-25 18:32:00,84.0,84.0,29.62,SE,124,4.0,4.0,100,0.00,,FEW043,0.00,350.00,VWS V14.01,2013-06-25 23:32:00,
2013-06-25 18:37:00,83.9,83.9,29.62,South,172,5.0,5.0,100,0.00,,FEW043,0.00,329.00,VWS V14.01,2013-06-25 23:37:00,
2013-06-25 18:42:00,83.8,83.8,29.61,SSE,160,1.0,0.0,100,0.00,,FEW043,0.00,348.00,VWS V14.01,2013-06-25 23:42:00,
2013-06-25 18:47:00,83.9,83.9,29.61,ENE,67,3.0,3.0,100,0.00,,FEW043,0.00,339.00,VWS V14.01,2013-06-25 23:47:00,
2013-06-25 18:52:00,84.0,84.0,29.61,SE,143,4.0,4.0,100,0.00,,FEW043,0.00,338.00,VWS V14.01,2013-06-25 23:52:00,
2013-06-25 18:57:00,83.9,83.9,29.62,SSE,166,4.0,4.0,100,0.00,,FEW043,0.00,202.00,VWS V14.01,2013-06-25 23:57:00,
2013-06-25 19:02:00,83.6,83.6,29.61,SSE,151,3.0,3.0,100,0.00,,FEW042,0.00,304.00,VWS V14.01,2013-06-26 00:02:00,
2013-06-25 19:07:00,83.3,83.3,29.61,SSE,153,4.0,4.0,100,0.00,,FEW042,0.00,220.00,VWS V14.01,2013-06-26 00:07:00,
2013-06-25 19:12:00,82.9,82.9,29.61,ESE,107,1.0,1.0,100,0.00,,FEW042,0.00,251.00,VWS V14.01,2013-06-26 00:12:00,
2013-06-25 19:17:00,82.9,82.9,29.61,SSE,161,3.0,3.0,100,0.00,,FEW042,0.00,236.00,VWS V14.01,2013-06-26 00:17:00,
2013-06-25 19:22:00,82.7,82.7,29.61,SE,124,1.0,0.0,100,0.00,,FEW042,0.00,216.00,VWS V14.01,2013-06-26 00:22:00,
2013-06-25 19:27:00,82.7,82.7,29.61,ESE,109,1.0,0.0,100,0.00,,FEW042,0.00,149.00,VWS V14.01,2013-06-26 00:27:00,
2013-06-25 19:32:00,82.8,82.8,29.61,SE,131,4.0,4.0,100,0.00,,FEW042,0.00,142.00,VWS V14.01,2013-06-26 00:32:00,
2013-06-25 19:37:00,82.4,82.4,29.61,East,96,1.0,1.0,100,0.00,,FEW042,0.00,149.00,VWS V14.01,2013-06-26 00:37:00,
2013-06-25 19:42:00,82.3,82.3,29.61,ESE,122,1.0,0.0,100,0.00,,FEW042,0.00,163.00,VWS V14.01,2013-06-26 00:42:00,
2013-06-25 19:47:00,82.2,82.2,29.62,SE,126,1.0,0.0,100,0.00,,FEW042,0.00,151.00,VWS V14.01,2013-06-26 00:47:00,
2013-06-25 19:52:00,81.9,81.9,29.61,South,172,3.0,3.0,100,0.00,,FEW042,0.00,123.00,VWS V14.01,2013-06-26 00:52:00,
2013-06-25 19:57:00,81.5,81.5,29.61,SE,142,3.0,3.0,100,0.00,,FEW042,0.00,74.00,VWS V14.01,2013-06-26 00:57:00,
2013-06-25 20:02:00,81.0,81.0,29.60,SE,140,2.0,2.0,100,0.00,,BKN042,0.00,79.00,VWS V14.01,2013-06-26 01:02:00,
2013-06-25 20:07:00,80.5,80.5,29.60,SE,138,6.0,6.0,100,0.00,,BKN042,0.00,54.00,VWS V14.01,2013-06-26 01:07:00,
2013-06-25 20:12:00,80.1,80.1,29.60,SE,146,4.0,4.0,100,0.00,,BKN042,0.00,51.00,VWS V14.01,2013-06-26 01:12:00,
2013-06-25 20:17:00,79.7,79.7,29.60,SSE,159,3.0,3.0,100,0.00,,BKN042,0.00,47.00,VWS V14.01,2013-06-26 01:17:00,
2013-06-25 20:22:00,79.2,79.2,29.60,SSE,153,4.0,4.0,100,0.00,,BKN042,0.00,44.00,VWS V14.01,2013-06-26 01:22:00,
2013-06-25 20:27:00,78.7,78.7,29.60,SE,132,3.0,3.0,100,0.00,,BKN042,0.00,39.00,VWS V14.01,2013-06-26 01:27:00,
2013-06-25 20:32:00,78.6,78.6,29.59,SE,138,2.0,2.0,100,0.00,,BKN042,0.00,23.00,VWS V14.01,2013-06-26 01:32:00,
2013-06-25 20:37:00,78.3,78.3,29.59,SSE,164,1.0,0.0,100,0.00,,BKN042,0.00,18.00,VWS V14.01,2013-06-26 01:37:00,
2013-06-25 20:42:00,78.0,78.0,29.59,SSE,153,3.0,3.0,100,0.00,,BKN042,0.00,14.00,VWS V14.01,2013-06-26 01:42:00,
2013-06-25 20:47:00,77.6,77.6,29.59,SSE,156,3.0,3.0,100,0.00,,BKN042,0.00,11.00,VWS V14.01,2013-06-26 01:47:00,
2013-06-25 20:52:00,77.3,77.3,29.59,SE,144,2.0,2.0,100,0.00,,BKN042,0.00,9.00,VWS V14.01,2013-06-26 01:52:00,
2013-06-25 20:57:00,77.0,77.0,29.59,South,187,3.0,3.0,100,0.00,,BKN042,0.00,5.00,VWS V14.01,2013-06-26 01:57:00,
2013-06-25 21:02:00,76.8,76.8,29.59,SSE,147,1.0,0.0,100,0.00,,CLR,0.00,0.00,VWS V14.01,2013-06-26 02:02:00,
2013-06-25 21:07:00,76.6,76.6,29.58,SE,134,1.0,0.0,100,0.00,,CLR,0.00,0.00,VWS V14.01,2013-06-26 02:07:00,
2013-06-25 21:12:00,76.4,76.4,29.58,South,182,2.0,2.0,100,0.00,,CLR,0.00,0.00,VWS V14.01,2013-06-26 02:12:00,
2013-06-25 21:17:00,76.1,76.1,29.58,SE,144,3.0,3.0,100,0.00,,CLR,0.00,0.00,VWS V14.01,2013-06-26 02:17:00,
2013-06-25 21:22:00,76.0,76.0,29.58,SSE,152,1.0,0.0,100,0.00,,CLR,0.00,0.00,VWS V14.01,2013-06-26 02:22:00,
2013-06-25 21:27:00,75.7,75.7,29.58,SE,132,2.0,2.0,100,0.00,,CLR,0.00,0.00,VWS V14.01,2013-06-26 02:27:00,
2013-06-25 21:32:00,75.5,75.5,29.58,SE,140,1.0,0.0,100,0.00,,CLR,0.00,0.00,VWS V14.01,2013-06-26 02:32:00,
2013-06-25 21:37:00,75.3,75.3,29.58,SE,145,2.0,2.0,100,0.00,,CLR,0.00,0.00,VWS V14.01,2013-06-26 02:37:00,
2013-06-25 21:42:00,75.3,75.3,29.59,SE,143,1.0,0.0,100,0.00,,CLR,0.00,0.00,VWS V14.01,2013-06-26 02:42:00,
2013-06-25 21:47:00,75.0,75.0,29.59,SSE,159,1.0,1.0,100,0.00,,CLR,0.00,0.00,VWS V14.01,2013-06-26 02:47:00,
2013-06-25 21:52:00,74.6,74.6,29.59,SSE,167,1.0,0.0,100,0.00,,CLR,0.00,0.00,VWS V14.01,2013-06-26 02:52:00,
2013-06-25 21:57:00,74.3,74.3,29.59,SSE,148,1.0,0.0,100,0.00,,CLR,0.00,0.00,VWS V14.01,2013-06-26 02:57:00,
2013-06-25 22:03:00,74.1,74.1,29.59,SSE,156,1.0,0.0,100,0.00,,CLR,0.00,0.00,VWS V14.01,2013-06-26 03:03:00,
2013-06-25 22:08:00,73.8,73.8,29.59,SE,144,1.0,0.0,100,0.00,,CLR,0.00,0.00,VWS V14.01,2013-06-26 03:08:00,
2013-06-25 22:13:00,73.7,73.7,29.59,SE,127,1.0,0.0,100,0.00,,CLR,0.00,0.00,VWS V14.01,2013-06-26 03:13:00,
2013-06-25 22:18:00,73.8,73.8,29.59,South,171,1.0,0.0,100,0.00,,CLR,0.00,0.00,VWS V14.01,2013-06-26 03:18:00,
2013-06-25 22:23:00,73.7,73.7,29.59,South,169,1.0,0.0,100,0.00,,CLR,0.00,0.00,VWS V14.01,2013-06-26 03:23:00,
2013-06-25 22:28:00,73.5,73.5,29.59,South,169,1.0,0.0,100,0.00,,CLR,0.00,0.00,VWS V14.01,2013-06-26 03:28:00,
2013-06-25 22:33:00,73.3,73.3,29.59,South,169,1.0,0.0,100,0.00,,CLR,0.00,0.00,VWS V14.01,2013-06-26 03:33:00,
2013-06-25 22:38:00,73.0,73.0,29.59,SE,136,1.0,0.0,100,0.00,,CLR,0.00,0.00,VWS V14.01,2013-06-26 03:38:00,
2013-06-25 22:43:00,72.8,72.8,29.60,SE,136,1.0,0.0,100,0.00,,CLR,0.00,0.00,VWS V14.01,2013-06-26 03:43:00,
2013-06-25 22:48:00,72.8,72.8,29.60,SE,137,1.0,0.0,100,0.00,,CLR,0.00,0.00,VWS V14.01,2013-06-26 03:48:00,
2013-06-25 22:53:00,72.8,72.8,29.60,SE,137,1.0,0.0,100,0.00,,CLR,0.00,0.00,VWS V14.01,2013-06-26 03:53:00,
2013-06-25 22:58:00,72.7,72.7,29.60,SSE,158,1.0,1.0,100,0.00,,CLR,0.00,0.00,VWS V14.01,2013-06-26 03:58:00,
2013-06-25 23:01:00,72.6,72.6,29.59,SSE,157,1.0,0.0,100,0.00,,CLR,0.00,0.00,VWS V14.01,2013-06-26 04:01:00,
2013-06-25 23:06:00,72.5,72.5,29.60,SSE,155,1.0,0.0,100,0.00,,CLR,0.00,0.00,VWS V14.01,2013-06-26 04:06:00,
2013-06-25 23:11:00,72.4,72.4,29.60,SSE,155,1.0,0.0,100,0.00,,CLR,0.00,0.00,VWS V14.01,2013-06-26 04:11:00,
2013-06-25 23:16:00,72.2,72.2,29.59,SSE,155,1.0,0.0,100,0.00,,CLR,0.00,0.00,VWS V14.01,2013-06-26 04:16:00,
2013-06-25 23:21:00,72.1,72.1,29.59,SSE,155,1.0,0.0,100,0.00,,CLR,0.00,0.00,VWS V14.01,2013-06-26 04:21:00,
2013-06-25 23:26:00,72.0,72.0,29.59,SSE,155,2.0,2.0,100,0.00,,CLR,0.00,0.00,VWS V14.01,2013-06-26 04:26:00,
2013-06-25 23:31:00,71.9,71.9,29.59,SE,145,4.0,4.0,100,0.00,,CLR,0.00,0.00,VWS V14.01,2013-06-26 04:31:00,
2013-06-25 23:36:00,71.9,71.9,29.59,ESE,121,1.0,0.0,100,0.00,,CLR,0.00,0.00,VWS V14.01,2013-06-26 04:36:00,
2013-06-25 23:41:00,72.0,72.0,29.58,SSE,148,3.0,3.0,100,0.00,,CLR,0.00,0.00,VWS V14.01,2013-06-26 04:41:00,
2013-06-25 23:46:00,71.9,71.9,29.58,South,173,2.0,2.0,100,0.00,,CLR,0.00,0.00,VWS V14.01,2013-06-26 04:46:00,
2013-06-25 23:51:00,71.9,71.9,29.58,SSE,153,2.0,2.0,100,0.00,,CLR,0.00,0.00,VWS V14.01,2013-06-26 04:51:00,
2013-06-25 23:56:00,72.0,72.0,29.57,SSE,159,2.0,2.0,100,0.00,,CLR,0.00,0.00,VWS V14.01,2013-06-26 04:56:00,